LOT3VB LSZH-EPWA

Flight info

Callsign LOT3VB
Flight time 1h 31m
Altitude 37000
Route DEGES Z2 XEBIX N871 BEPAS DCT ENORU DCT OKENO DCT AGAVA
Aircraft E170/M-SDE3GILORVW/S

Departure

Time 2026-04-25 21:22
Airport Zürich Airport (LSZH)

Arrival

Time 2026-04-25 22:53
Airport Warsaw Chopin Airport (EPWA)
Time Latitude Longitude Altitude Speed Heading
2026-04-25 20:53 47.45431 8.55634 1412 ft 0 kts 186°
2026-04-25 21:12 47.45432 8.55635 1412 ft 1 kts 186°
2026-04-25 21:12 47.45441 8.55636 1412 ft 2 kts 186°
2026-04-25 21:13 47.45460 8.55639 1412 ft 2 kts 186°
2026-04-25 21:13 47.45470 8.55640 1412 ft 1 kts 186°
2026-04-25 21:13 47.45483 8.55640 1412 ft 2 kts 168°
2026-04-25 21:13 47.45497 8.55633 1412 ft 2 kts 150°
2026-04-25 21:14 47.45508 8.55620 1412 ft 2 kts 131°
2026-04-25 21:14 47.45516 8.55601 1411 ft 2 kts 112°
2026-04-25 21:14 47.45519 8.55586 1411 ft 0 kts 99°
2026-04-25 21:14 47.45520 8.55576 1411 ft 0 kts 96°
2026-04-25 21:17 47.45520 8.55577 1411 ft 0 kts 96°
2026-04-25 21:17 47.45519 8.55589 1411 ft 2 kts 96°
2026-04-25 21:17 47.45517 8.55617 1411 ft 4 kts 96°
2026-04-25 21:17 47.45514 8.55661 1412 ft 5 kts 96°
2026-04-25 21:18 47.45510 8.55725 1414 ft 7 kts 96°
2026-04-25 21:18 47.45504 8.55810 1415 ft 9 kts 97°
2026-04-25 21:18 47.45496 8.55918 1418 ft 12 kts 96°
2026-04-25 21:18 47.45488 8.56034 1421 ft 10 kts 95°
2026-04-25 21:19 47.45482 8.56117 1424 ft 6 kts 97°
2026-04-25 21:19 47.45478 8.56186 1427 ft 8 kts 89°
2026-04-25 21:19 47.45520 8.56257 1427 ft 13 kts
2026-04-25 21:19 47.45641 8.56264 1422 ft 22 kts
2026-04-25 21:20 47.45814 8.56292 1419 ft 27 kts
2026-04-25 21:20 47.45857 8.56298 1418 ft 12 kts
2026-04-25 21:20 47.46021 8.56326 1418 ft 19 kts
2026-04-25 21:20 47.46179 8.56341 1416 ft 26 kts 346°
2026-04-25 21:21 47.46375 8.56112 1411 ft 62 kts 319°
2026-04-25 21:21 47.46846 8.55475 1399 ft 120 kts 317°
2026-04-25 21:21 47.47577 8.54482 1427 ft 159 kts 318°
2026-04-25 21:21 47.48396 8.53372 1782 ft 167 kts 319°
2026-04-25 21:22 47.49331 8.52317 2281 ft 173 kts 329°
2026-04-25 21:22 47.50333 8.51373 2896 ft 178 kts 329°
2026-04-25 21:22 47.51385 8.50230 3333 ft 203 kts 311°
2026-04-25 21:22 47.51895 8.48217 3839 ft 226 kts 275°
2026-04-25 21:23 47.51866 8.45849 4555 ft 237 kts 272°
2026-04-25 21:23 47.51749 8.43396 5279 ft 249 kts 251°
2026-04-25 21:23 47.50702 8.41470 6281 ft 247 kts 211°
2026-04-25 21:23 47.49102 8.40942 7307 ft 242 kts 172°
2026-04-25 21:24 47.47554 8.41661 8139 ft 242 kts 159°
2026-04-25 21:24 47.46255 8.43105 8823 ft 245 kts 121°
2026-04-25 21:24 47.45729 8.45529 9166 ft 264 kts 91°
2026-04-25 21:24 47.45719 8.48351 9418 ft 287 kts 89°
2026-04-25 21:25 47.45717 8.51377 9931 ft 300 kts 89°
2026-04-25 21:25 47.45715 8.54454 10650 ft 304 kts 87°
2026-04-25 21:25 47.45820 8.57552 11343 ft 307 kts 85°
2026-04-25 21:25 47.45936 8.60727 11915 ft 316 kts 85°
2026-04-25 21:26 47.46054 8.63997 12425 ft 326 kts 85°
2026-04-25 21:26 47.46175 8.67350 12978 ft 333 kts 85°
2026-04-25 21:26 47.46301 8.70760 13598 ft 337 kts 84°
2026-04-25 21:26 47.46428 8.74216 14267 ft 340 kts 84°
2026-04-25 21:27 47.46553 8.77639 14914 ft 342 kts 84°
2026-04-25 21:27 47.46676 8.81143 15564 ft 345 kts 86°
2026-04-25 21:27 47.46367 8.84663 16151 ft 352 kts 99°
2026-04-25 21:27 47.45859 8.88156 16728 ft 355 kts 99°
2026-04-25 21:28 47.45344 8.91743 17293 ft 359 kts 98°
2026-04-25 21:28 47.44841 8.95276 17814 ft 362 kts 98°
2026-04-25 21:28 47.44317 8.98941 18399 ft 365 kts 98°
2026-04-25 21:28 47.43792 9.02602 18926 ft 368 kts 98°
2026-04-25 21:29 47.43260 9.06301 19457 ft 372 kts 98°
2026-04-25 21:29 47.42726 9.09999 19998 ft 375 kts 98°
2026-04-25 21:29 47.42182 9.13752 20477 ft 379 kts 98°
2026-04-25 21:29 47.41632 9.17547 20977 ft 382 kts 97°
2026-04-25 21:30 47.41511 9.21391 21439 ft 375 kts 76°
2026-04-25 21:30 47.42020 9.25130 21947 ft 375 kts 72°
2026-04-25 21:30 47.42584 9.28902 22438 ft 378 kts 72°
2026-04-25 21:30 47.42961 9.31409 22728 ft 378 kts 72°
2026-04-25 21:31 47.43722 9.36437 23174 ft 381 kts 72°
2026-04-25 21:31 47.44295 9.40233 23476 ft 383 kts 72°
2026-04-25 21:31 47.44873 9.44067 23773 ft 387 kts 72°
2026-04-25 21:31 47.45455 9.47938 24083 ft 389 kts 72°
2026-04-25 21:32 47.46044 9.51865 24414 ft 391 kts 72°
2026-04-25 21:32 47.46607 9.55626 24715 ft 393 kts 72°
2026-04-25 21:32 47.47145 9.59637 25024 ft 399 kts 81°
2026-04-25 21:32 47.47068 9.63696 25319 ft 406 kts 90°
2026-04-25 21:33 47.46860 9.67659 25600 ft 408 kts 90°
2026-04-25 21:33 47.46631 9.71917 25896 ft 410 kts 91°
2026-04-25 21:33 47.46404 9.76060 26192 ft 412 kts 91°
2026-04-25 21:33 47.46172 9.80265 26485 ft 414 kts 91°
2026-04-25 21:34 47.45935 9.84522 26769 ft 416 kts 91°
2026-04-25 21:34 47.45697 9.88778 27051 ft 417 kts 91°
2026-04-25 21:34 47.45455 9.93074 27332 ft 419 kts 91°
2026-04-25 21:34 47.45230 9.97387 27615 ft 419 kts 88°
2026-04-25 21:35 47.45355 10.01685 27864 ft 416 kts 78°
2026-04-25 21:35 47.45952 10.05678 28110 ft 412 kts 68°
2026-04-25 21:35 47.47088 10.09658 28371 ft 408 kts 57°
2026-04-25 21:35 47.48079 10.12020 28528 ft 406 kts 50°
2026-04-25 21:36 47.50599 10.16093 28869 ft 401 kts 37°
2026-04-25 21:36 47.52562 10.19047 29108 ft 408 kts 47°
2026-04-25 21:36 47.54150 10.22565 29347 ft 415 kts 58°
2026-04-25 21:36 47.55468 10.26405 29600 ft 417 kts 58°
2026-04-25 21:37 47.56798 10.30206 29841 ft 418 kts 58°
2026-04-25 21:37 47.57693 10.32743 30005 ft 419 kts 58°
2026-04-25 21:37 47.59494 10.37835 30318 ft 421 kts 58°
2026-04-25 21:37 47.60855 10.41686 30552 ft 423 kts 58°
2026-04-25 21:38 47.62221 10.45554 30766 ft 425 kts 58°
2026-04-25 21:38 47.63595 10.49448 31037 ft 429 kts 58°
2026-04-25 21:38 47.64983 10.53392 31380 ft 431 kts 58°
2026-04-25 21:38 47.66368 10.57331 31716 ft 433 kts 58°
2026-04-25 21:39 47.67757 10.61288 32039 ft 435 kts 58°
2026-04-25 21:39 47.69145 10.65249 32400 ft 436 kts 59°
2026-04-25 21:39 47.70509 10.69144 32759 ft 436 kts 59°
2026-04-25 21:39 47.71825 10.72909 33135 ft 436 kts 59°
2026-04-25 21:40 47.73231 10.76940 33537 ft 435 kts 59°
2026-04-25 21:40 47.74622 10.80933 33931 ft 434 kts 59°
2026-04-25 21:40 47.76002 10.84899 34308 ft 434 kts 59°
2026-04-25 21:40 47.77378 10.88858 34670 ft 434 kts 59°
2026-04-25 21:41 47.78754 10.92828 35041 ft 434 kts 59°
2026-04-25 21:41 47.80126 10.96788 35430 ft 433 kts 59°
2026-04-25 21:41 47.81379 11.00411 35772 ft 432 kts 59°
2026-04-25 21:41 47.82806 11.04544 36160 ft 432 kts 59°
2026-04-25 21:42 47.84178 11.08524 36522 ft 431 kts 59°
2026-04-25 21:42 47.85536 11.12467 36863 ft 431 kts 59°
2026-04-25 21:42 47.86890 11.16408 37156 ft 426 kts 59°
2026-04-25 21:42 47.88235 11.20325 37175 ft 429 kts 59°
2026-04-25 21:43 47.90975 11.28326 37183 ft 443 kts 59°
2026-04-25 21:43 47.93795 11.36589 37183 ft 456 kts 59°
2026-04-25 21:44 47.96637 11.44945 37165 ft 458 kts 59°
2026-04-25 21:45 48.00843 11.57356 37175 ft 457 kts 59°
2026-04-25 21:45 48.03628 11.65607 37168 ft 457 kts 59°
2026-04-25 21:46 48.06433 11.73945 37169 ft 457 kts 59°
2026-04-25 21:46 48.09229 11.82284 37162 ft 457 kts 59°
2026-04-25 21:47 48.12019 11.90631 37161 ft 457 kts 59°
2026-04-25 21:47 48.14833 11.99076 37163 ft 458 kts 59°
2026-04-25 21:48 48.17631 12.07500 37163 ft 457 kts 59°
2026-04-25 21:48 48.20431 12.15962 37156 ft 458 kts 59°
2026-04-25 21:49 48.23250 12.24443 37152 ft 456 kts 56°
2026-04-25 21:49 48.26980 12.31934 37164 ft 450 kts 45°
2026-04-25 21:50 48.30943 12.39169 37156 ft 450 kts 46°
2026-04-25 21:50 48.34786 12.46315 37149 ft 451 kts 46°
2026-04-25 21:51 48.38700 12.53624 37152 ft 450 kts 46°
2026-04-25 21:51 48.42614 12.60951 37148 ft 450 kts 46°
2026-04-25 21:52 48.46466 12.68182 37132 ft 451 kts 47°
2026-04-25 21:52 48.50330 12.75454 37140 ft 450 kts 47°
2026-04-25 21:53 48.54186 12.82732 37134 ft 451 kts 47°
2026-04-25 21:53 48.58069 12.90083 37117 ft 448 kts 46°
2026-04-25 21:54 48.61961 12.97468 37105 ft 453 kts 46°
2026-04-25 21:54 48.65846 13.04862 37103 ft 451 kts 46°
2026-04-25 21:55 48.69740 13.12290 37108 ft 451 kts 46°
2026-04-25 21:55 48.73619 13.19715 37097 ft 451 kts 46°
2026-04-25 21:56 48.77490 13.27142 37092 ft 452 kts 46°
2026-04-25 21:56 48.81358 13.34584 37090 ft 452 kts 46°
2026-04-25 21:57 48.85236 13.42067 37097 ft 453 kts 46°
2026-04-25 21:57 48.89103 13.49549 37092 ft 452 kts 46°
2026-04-25 21:58 48.93010 13.56948 37095 ft 452 kts 45°
2026-04-25 21:58 48.96928 13.64341 37103 ft 453 kts 45°
2026-04-25 21:59 49.00776 13.71625 37098 ft 452 kts 46°
2026-04-25 21:59 49.04694 13.79060 37088 ft 452 kts 46°
2026-04-25 22:00 49.10595 13.90299 37070 ft 453 kts 46°
2026-04-25 22:00 49.14509 13.97780 37070 ft 453 kts 46°
2026-04-25 22:01 49.18418 14.05273 37080 ft 452 kts 46°
2026-04-25 22:01 49.21682 14.11544 37074 ft 454 kts 46°
2026-04-25 22:02 49.26236 14.20320 37067 ft 454 kts 46°
2026-04-25 22:02 49.30136 14.27858 37070 ft 454 kts 46°
2026-04-25 22:03 49.34029 14.35405 37052 ft 455 kts 46°
2026-04-25 22:03 49.37940 14.43010 37052 ft 454 kts 46°
2026-04-25 22:04 49.41814 14.50562 37036 ft 456 kts 46°
2026-04-25 22:04 49.45728 14.58216 37055 ft 457 kts 45°
2026-04-25 22:05 49.49630 14.65867 37045 ft 456 kts 46°
2026-04-25 22:05 49.53554 14.73583 37042 ft 457 kts 46°
2026-04-25 22:06 49.57443 14.81253 37042 ft 457 kts 46°
2026-04-25 22:06 49.61335 14.88951 37039 ft 458 kts 46°
2026-04-25 22:07 49.64586 14.95399 37036 ft 458 kts 46°
2026-04-25 22:07 49.69122 15.04423 37037 ft 457 kts 46°
2026-04-25 22:08 49.72993 15.12146 37028 ft 458 kts 46°
2026-04-25 22:08 49.76867 15.19899 37028 ft 459 kts 46°
2026-04-25 22:09 49.80759 15.27711 37028 ft 458 kts 46°
2026-04-25 22:09 49.84628 15.35500 37017 ft 459 kts 46°
2026-04-25 22:10 49.88491 15.43299 37016 ft 459 kts 46°
2026-04-25 22:10 49.92363 15.51141 37009 ft 458 kts 45°
2026-04-25 22:11 49.96223 15.58981 36998 ft 460 kts 46°
2026-04-25 22:11 50.00093 15.66863 36994 ft 460 kts 46°
2026-04-25 22:12 50.03951 15.74747 36983 ft 461 kts 46°
2026-04-25 22:12 50.07181 15.81365 36986 ft 461 kts 46°
2026-04-25 22:13 50.11704 15.90660 36993 ft 461 kts 46°
2026-04-25 22:13 50.15567 15.98625 36988 ft 463 kts 46°
2026-04-25 22:14 50.19441 16.06637 36988 ft 464 kts 46°
2026-04-25 22:14 50.23299 16.14641 36992 ft 462 kts 45°
2026-04-25 22:15 50.27116 16.22582 36980 ft 463 kts 46°
2026-04-25 22:16 50.32839 16.34535 36958 ft 465 kts 45°
2026-04-25 22:16 50.36796 16.41921 36956 ft 456 kts 39°
2026-04-25 22:17 50.41115 16.49335 36948 ft 458 kts 39°
2026-04-25 22:17 50.45304 16.56630 36943 ft 457 kts 39°
2026-04-25 22:18 50.49538 16.64029 36938 ft 458 kts 39°
2026-04-25 22:18 50.53820 16.71525 36924 ft 458 kts 40°
2026-04-25 22:19 50.58075 16.78956 36902 ft 461 kts 40°
2026-04-25 22:19 50.62184 16.86583 36910 ft 471 kts 47°
2026-04-25 22:20 50.65915 16.95003 36906 ft 469 kts 47°
2026-04-25 22:20 50.69659 17.03430 36900 ft 470 kts 46°
2026-04-25 22:21 50.73356 17.11921 36894 ft 474 kts 51°
2026-04-25 22:21 50.76553 17.20997 36895 ft 480 kts 53°
2026-04-25 22:22 50.79769 17.30168 36880 ft 476 kts 52°
2026-04-25 22:22 50.82946 17.39222 36886 ft 481 kts 53°
2026-04-25 22:23 50.86033 17.48058 36870 ft 479 kts 52°
2026-04-25 22:23 50.89270 17.57356 36860 ft 478 kts 52°
2026-04-25 22:24 50.92299 17.66082 36857 ft 481 kts 53°
2026-04-25 22:24 50.94943 17.73728 36849 ft 481 kts 53°
2026-04-25 22:25 50.97767 17.81914 36845 ft 486 kts 53°
2026-04-25 22:25 51.01694 17.93349 36844 ft 484 kts 53°
2026-04-25 22:26 51.04761 18.02312 36835 ft 487 kts 53°
2026-04-25 22:26 51.07917 18.11574 36838 ft 486 kts 53°
2026-04-25 22:27 51.11093 18.20927 36804 ft 482 kts 53°
2026-04-25 22:27 51.14288 18.30369 36833 ft 482 kts 53°
2026-04-25 22:27 51.15876 18.35076 36392 ft 484 kts 53°
2026-04-25 22:28 51.17433 18.39703 35942 ft 481 kts 53°
2026-04-25 22:28 51.18978 18.44307 35430 ft 469 kts 52°
2026-04-25 22:28 51.20436 18.48668 34904 ft 435 kts 51°
2026-04-25 22:28 51.21783 18.52730 34810 ft 392 kts 51°
2026-04-25 22:29 51.22865 18.56498 34779 ft 363 kts 59°
2026-04-25 22:29 51.23708 18.60106 34647 ft 327 kts 53°
2026-04-25 22:29 51.24542 18.63327 34118 ft 313 kts 52°
2026-04-25 22:30 51.26262 18.69654 32343 ft 312 kts 53°
2026-04-25 22:30 51.27119 18.72787 31510 ft 309 kts 52°
2026-04-25 22:30 51.27968 18.75891 30708 ft 306 kts 52°
2026-04-25 22:30 51.28530 18.77942 30153 ft 304 kts 52°
2026-04-25 22:31 51.29650 18.82037 29063 ft 301 kts 52°
2026-04-25 22:31 51.30492 18.85101 28298 ft 310 kts 54°
2026-04-25 22:31 51.30643 18.85654 28177 ft 313 kts 53°
2026-04-25 22:31 51.31498 18.88782 27444 ft 327 kts 54°
2026-04-25 22:32 51.32422 18.92170 26630 ft 343 kts 56°
2026-04-25 22:32 51.33344 18.95567 25806 ft 358 kts 56°
2026-04-25 22:32 51.34257 18.98930 24963 ft 372 kts 57°
2026-04-25 22:32 51.35337 19.02918 23949 ft 388 kts 58°
2026-04-25 22:33 51.36434 19.06978 22903 ft 402 kts 58°
2026-04-25 22:33 51.37582 19.11213 21879 ft 435 kts 59°
2026-04-25 22:33 51.38780 19.15678 20798 ft 439 kts 60°
2026-04-25 22:33 51.39972 19.20119 20220 ft 432 kts 59°
2026-04-25 22:34 51.41145 19.24488 20286 ft 436 kts 59°
2026-04-25 22:34 51.42315 19.28850 20280 ft 436 kts 60°
2026-04-25 22:34 51.43501 19.33286 20287 ft 434 kts 60°
2026-04-25 22:34 51.44659 19.37628 20300 ft 434 kts 59°
2026-04-25 22:35 51.45827 19.42003 20303 ft 434 kts 60°
2026-04-25 22:35 51.47012 19.46462 20324 ft 434 kts 60°
2026-04-25 22:35 51.48195 19.50919 20330 ft 433 kts 60°
2026-04-25 22:35 51.49375 19.55371 20337 ft 434 kts 60°
2026-04-25 22:36 51.50556 19.59839 20349 ft 435 kts 60°
2026-04-25 22:36 51.51740 19.64322 20376 ft 438 kts 60°
2026-04-25 22:36 51.52923 19.68809 20360 ft 437 kts 61°
2026-04-25 22:36 51.54100 19.73287 20355 ft 438 kts 61°
2026-04-25 22:37 51.55284 19.77804 19989 ft 437 kts 61°
2026-04-25 22:37 51.56452 19.82265 19518 ft 433 kts 61°
2026-04-25 22:37 51.57613 19.86705 19029 ft 430 kts 61°
2026-04-25 22:37 51.58746 19.91056 18580 ft 426 kts 61°
2026-04-25 22:38 51.59875 19.95389 18106 ft 422 kts 62°
2026-04-25 22:38 51.60915 19.99394 17683 ft 420 kts 61°
2026-04-25 22:38 51.61837 20.02945 17304 ft 417 kts 62°
2026-04-25 22:38 51.62952 20.07251 16835 ft 414 kts 62°
2026-04-25 22:39 51.64155 20.11908 16337 ft 411 kts 61°
2026-04-25 22:39 51.65231 20.16077 15888 ft 409 kts 61°
2026-04-25 22:39 51.66316 20.20288 15438 ft 405 kts 62°
2026-04-25 22:39 51.67380 20.24429 14981 ft 404 kts 62°
2026-04-25 22:40 51.68423 20.28499 14565 ft 400 kts 62°
2026-04-25 22:40 51.69418 20.32378 14141 ft 398 kts 62°
2026-04-25 22:40 51.70393 20.36191 13722 ft 395 kts 62°
2026-04-25 22:40 51.71477 20.40442 13264 ft 392 kts 62°
2026-04-25 22:41 51.72515 20.44518 12837 ft 387 kts 62°
2026-04-25 22:41 51.73533 20.48523 12387 ft 384 kts 62°
2026-04-25 22:41 51.74536 20.52473 11987 ft 382 kts 62°
2026-04-25 22:41 51.75530 20.56395 11545 ft 375 kts 62°
2026-04-25 22:42 51.76505 20.60251 11154 ft 368 kts 62°
2026-04-25 22:42 51.77463 20.64048 10737 ft 360 kts 62°
2026-04-25 22:42 51.78395 20.67747 10322 ft 349 kts 63°
2026-04-25 22:42 51.79293 20.71317 9943 ft 338 kts 63°
2026-04-25 22:43 51.80107 20.74556 9605 ft 328 kts 63°
2026-04-25 22:43 51.80985 20.78054 9230 ft 323 kts 63°
2026-04-25 22:43 51.81827 20.81409 8878 ft 321 kts 63°
2026-04-25 22:43 51.82669 20.84775 8527 ft 320 kts 63°
2026-04-25 22:44 51.83505 20.88123 8179 ft 319 kts 63°
2026-04-25 22:44 51.84331 20.91436 7813 ft 316 kts 63°
2026-04-25 22:44 51.85134 20.94661 7471 ft 312 kts 63°
2026-04-25 22:44 51.85936 20.97887 7132 ft 312 kts 63°
2026-04-25 22:45 51.86740 21.01126 6792 ft 309 kts 64°
2026-04-25 22:45 51.87529 21.04307 6447 ft 307 kts 64°
2026-04-25 22:45 51.88303 21.07437 6122 ft 304 kts 63°
2026-04-25 22:45 51.89089 21.10613 5777 ft 303 kts 64°
2026-04-25 22:46 51.89958 21.13670 5438 ft 293 kts 46°
2026-04-25 22:46 51.91466 21.15604 5183 ft 270 kts 11°
2026-04-25 22:46 51.93253 21.15898 4677 ft 256 kts 341°
2026-04-25 22:46 51.94888 21.15033 4271 ft 243 kts 332°
2026-04-25 22:47 51.96449 21.14066 3890 ft 239 kts 333°
2026-04-25 22:47 51.97917 21.12918 3514 ft 232 kts 326°
2026-04-25 22:47 51.99321 21.11681 3144 ft 225 kts 326°
2026-04-25 22:47 52.00680 21.10498 2784 ft 220 kts 327°
2026-04-25 22:48 52.01983 21.09371 2684 ft 203 kts 327°
2026-04-25 22:48 52.03173 21.08343 2664 ft 185 kts 326°
2026-04-25 22:48 52.04247 21.07415 2680 ft 165 kts 326°
2026-04-25 22:48 52.05203 21.06587 2615 ft 150 kts 325°
2026-04-25 22:49 52.06065 21.05841 2482 ft 135 kts 324°
2026-04-25 22:49 52.06850 21.05162 2258 ft 119 kts 324°
2026-04-25 22:49 52.07552 21.04552 2077 ft 113 kts 323°
2026-04-25 22:49 52.08247 21.03945 1939 ft 114 kts 324°
2026-04-25 22:50 52.08897 21.03379 1810 ft 117 kts 324°
2026-04-25 22:50 52.09636 21.02740 1651 ft 119 kts 324°
2026-04-25 22:50 52.10381 21.02120 1502 ft 122 kts 327°
2026-04-25 22:50 52.11140 21.01529 1356 ft 121 kts 326°
2026-04-25 22:51 52.11786 21.00918 1208 ft 125 kts 321°
2026-04-25 22:51 52.12550 21.00219 1045 ft 128 kts 327°
2026-04-25 22:51 52.13346 20.99531 827 ft 130 kts 324°
2026-04-25 22:51 52.14145 20.98843 638 ft 131 kts 327°
2026-04-25 22:52 52.14942 20.98138 439 ft 133 kts 328°
2026-04-25 22:52 52.15740 20.97436 310 ft 126 kts 329°
2026-04-25 22:52 52.16383 20.96866 306 ft 81 kts 332°
2026-04-25 22:52 52.16671 20.96621 301 ft 66 kts 331°
2026-04-25 22:53 52.17114 20.96253 308 ft 25 kts 357°
2026-04-25 22:53 52.17268 20.96248 307 ft 24 kts
2026-04-25 22:53 52.17374 20.96269 307 ft 11 kts 30°
2026-04-25 22:53 52.17412 20.96339 305 ft 13 kts 56°
2026-04-25 22:54 52.17476 20.96541 304 ft 15 kts 64°
2026-04-25 22:54 52.17513 20.96661 307 ft 14 kts 57°
2026-04-25 22:54 52.17563 20.96786 309 ft 13 kts 57°
2026-04-25 22:54 52.17599 20.96880 310 ft 13 kts 60°
2026-04-25 22:55 52.17590 20.96982 312 ft 11 kts 147°
2026-04-25 22:55 52.17539 20.97031 312 ft 12 kts 147°
2026-04-25 22:55 52.17484 20.97081 312 ft 13 kts 153°
2026-04-25 22:55 52.17399 20.97149 313 ft 11 kts 149°
2026-04-25 22:56 52.17360 20.97138 313 ft 8 kts 232°
2026-04-25 22:56 52.17338 20.97057 311 ft 3 kts 253°
2026-04-25 22:56 52.17341 20.97079 312 ft 0 kts 253°
2026-04-25 22:56 52.17347 20.97094 312 ft 2 kts 249°
2026-04-25 22:57 52.17342 20.97077 312 ft 3 kts 244°
2026-04-25 22:57 52.17342 20.97076 312 ft 0 kts 244°